Gillette, WY

6:16 PM MDT on May 28, 2017 (GMT -0600)
McCann Heights, central Gillette | | Change Station

Elev 4590 ft 44.28 °N, 105.50 °W | Updated 19 seconds ago

Overcast
Overcast
58.8 °F
Feels Like 58.8 °F
N
1.0
Wind Variable Wind from NNW

Today
High -- | Low -- °F
--% Chance of Precip.
Yesterday
High -- | Low -- °F
Precip. -- in
Pressure 30.12 in
Visibility 10.0 miles
Clouds Few 3400 ft
Mostly Cloudy 9000 ft
Overcast 11000 ft
Dew Point 41 °F
Humidity 51%
Rainfall 0.00 in
Snow Depth Not available.
5:23 AM 8:36 PM
Waxing Crescent, 15% visible
METAR KGCC 282353Z AUTO 31016G28KT 10SM FEW034 BKN090 OVC110 14/06 A3017 RMK AO2 PK WND 35037/2254 PRESFR SLP198 T01390061 10217 20128 50011
Pressure 30.12 in
Visibility 10.0 miles
Clouds Few 3400 ft
Mostly Cloudy 9000 ft
Overcast 11000 ft
Dew Point 41 °F
Humidity 51%
Rainfall 0.00 in
Snow Depth Not available.
5:23 AM 8:36 PM
Waxing Crescent, 15% visible
METAR KGCC 282353Z AUTO 31016G28KT 10SM FEW034 BKN090 OVC110 14/06 A3017 RMK AO2 PK WND 35037/2254 PRESFR SLP198 T01390061 10217 20128 50011

Get Severe Weather Alerts

Thanks for signing up!

Be on the lookout for a verification email in your inbox.

You'll start receiving the daily forecast at 6 AM.

×

10-Day Weather Forecast

Almanac

Astronomy

May. 28, 2017 Rise Set
Actual Time
Civil Twilight
Nautical Twilight
Astronomical Twilight
Moon
Length of Visible Light
Length of Day
Tomorrow will be .
, % of the Moon is Illuminated

Today's Extremes

State Highs State Lows

Community

WunderPhotos

Category 6

Welcome to Category 6. This is the collective home for Weather Underground's featured writeups by Dr. Jeff Masters (right), Bob Henson (left), Chris Burt, and other regular contributors.

Nearby

Air Quality

  Air Quality AQ Index Pollutant
Not available.

Snow Depth

Station Depth Elevation

Earthquake Activity

City Distance Mag. Time & Date
Minimum magnitude displayed is 2.5.

Coastal Water Temperatures

Place Temperature

Stations

Nearby Weather Stations

Station Location Temp. Windchill Dew Point Humidity Wind Precip. Elev Updated Type
                   

Watches & Warnings

There are currently no watches in effect.